BCS36 EDDP-EDDK

Flight info

Callsign BCS36
Flight time 0h 38m
Altitude 28000
Route ORTAG5S/26L ORTAG Q230 KUMER DCT TOLTA DCT PODER Z189 RUNER T858 KOPAG KOPAG1D
Aircraft A306/H-SDE3FGHIRWY/LB1

Departure

Time 2026-04-23 18:15
Airport Leipzig/Halle Airport (EDDP)

Arrival

Time 2026-04-23 18:54
Airport Cologne Bonn Airport (EDDK)
Time Latitude Longitude Altitude Speed Heading
2026-04-23 17:44 51.40934 12.24336 467 ft 0 kts 84°
2026-04-23 18:03 51.40934 12.24333 471 ft 2 kts 84°
2026-04-23 18:03 51.40930 12.24291 468 ft 4 kts 73°
2026-04-23 18:03 51.40920 12.24253 467 ft 4 kts 50°
2026-04-23 18:04 51.40901 12.24233 466 ft 2 kts 357°
2026-04-23 18:04 51.40899 12.24233 466 ft 0 kts 355°
2026-04-23 18:07 51.40905 12.24232 466 ft 3 kts 355°
2026-04-23 18:07 51.40938 12.24228 469 ft 7 kts 355°
2026-04-23 18:07 51.40979 12.24223 466 ft 5 kts 355°
2026-04-23 18:07 51.41012 12.24219 470 ft 6 kts 355°
2026-04-23 18:08 51.41039 12.24215 467 ft 6 kts 355°
2026-04-23 18:08 51.41079 12.24286 470 ft 10 kts 83°
2026-04-23 18:08 51.41086 12.24412 468 ft 14 kts 85°
2026-04-23 18:08 51.41094 12.24592 472 ft 17 kts 85°
2026-04-23 18:09 51.41102 12.24760 469 ft 13 kts 86°
2026-04-23 18:09 51.41108 12.24897 479 ft 12 kts 85°
2026-04-23 18:09 51.41114 12.25011 480 ft 9 kts 85°
2026-04-23 18:09 51.41118 12.25099 473 ft 8 kts 86°
2026-04-23 18:10 51.41122 12.25186 477 ft 8 kts 86°
2026-04-23 18:10 51.41126 12.25273 482 ft 8 kts 86°
2026-04-23 18:10 51.41130 12.25356 483 ft 8 kts 86°
2026-04-23 18:10 51.41137 12.25427 476 ft 5 kts 64°
2026-04-23 18:11 51.41171 12.25454 480 ft 7 kts
2026-04-23 18:11 51.41222 12.25449 479 ft 8 kts 352°
2026-04-23 18:11 51.41261 12.25433 476 ft 0 kts 340°
2026-04-23 18:13 51.41269 12.25428 472 ft 4 kts 340°
2026-04-23 18:13 51.41305 12.25397 474 ft 7 kts 327°
2026-04-23 18:14 51.41329 12.25364 475 ft 7 kts 317°
2026-04-23 18:14 51.41372 12.25299 472 ft 6 kts 313°
2026-04-23 18:14 51.41384 12.25241 470 ft 5 kts 271°
2026-04-23 18:14 51.41376 12.25051 469 ft 42 kts 265°
2026-04-23 18:15 51.41337 12.24232 478 ft 104 kts 265°
2026-04-23 18:15 51.41270 12.22781 468 ft 156 kts 265°
2026-04-23 18:15 51.41191 12.20832 763 ft 183 kts 268°
2026-04-23 18:15 51.41114 12.18822 1701 ft 184 kts 270°
2026-04-23 18:16 51.41030 12.16676 2269 ft 201 kts 270°
2026-04-23 18:16 51.40902 12.14306 2604 ft 227 kts 269°
2026-04-23 18:16 51.40766 12.11670 3079 ft 244 kts 269°
2026-04-23 18:17 51.40489 12.06134 4734 ft 254 kts 269°
2026-04-23 18:17 51.40349 12.03296 5606 ft 257 kts 269°
2026-04-23 18:17 51.40207 12.00414 6459 ft 262 kts 269°
2026-04-23 18:17 51.40063 11.97473 7244 ft 268 kts 270°
2026-04-23 18:18 51.39984 11.95484 7782 ft 270 kts 274°
2026-04-23 18:18 51.40128 11.92474 8604 ft 273 kts 282°
2026-04-23 18:18 51.40392 11.89442 9431 ft 277 kts 283°
2026-04-23 18:18 51.40693 11.86362 10235 ft 282 kts 284°
2026-04-23 18:19 51.41016 11.83202 10716 ft 297 kts 284°
2026-04-23 18:19 51.41370 11.79831 11012 ft 316 kts 284°
2026-04-23 18:19 51.41738 11.76302 11584 ft 322 kts 284°
2026-04-23 18:19 51.42101 11.72774 12424 ft 320 kts 284°
2026-04-23 18:20 51.42465 11.69250 13150 ft 322 kts 284°
2026-04-23 18:20 51.42834 11.65697 13853 ft 325 kts 284°
2026-04-23 18:20 51.43208 11.62101 14472 ft 328 kts 284°
2026-04-23 18:20 51.43583 11.58471 15040 ft 333 kts 283°
2026-04-23 18:21 51.43962 11.54787 15571 ft 337 kts 283°
2026-04-23 18:21 51.44346 11.51052 16159 ft 341 kts 283°
2026-04-23 18:21 51.44733 11.47279 16746 ft 345 kts 283°
2026-04-23 18:21 51.45118 11.43514 17314 ft 348 kts 283°
2026-04-23 18:22 51.45509 11.39668 17892 ft 352 kts 283°
2026-04-23 18:22 51.45880 11.35770 18447 ft 356 kts 282°
2026-04-23 18:22 51.46195 11.31814 18934 ft 360 kts 280°
2026-04-23 18:22 51.46476 11.27801 19393 ft 364 kts 280°
2026-04-23 18:23 51.46742 11.23748 19876 ft 367 kts 279°
2026-04-23 18:23 51.47273 11.15539 20812 ft 373 kts 279°
2026-04-23 18:24 51.47823 11.07199 21757 ft 379 kts 279°
2026-04-23 18:24 51.48102 11.02977 22220 ft 382 kts 279°
2026-04-23 18:24 51.48383 10.98718 22684 ft 385 kts 279°
2026-04-23 18:25 51.48948 10.90090 23611 ft 392 kts 279°
2026-04-23 18:25 51.49232 10.85720 24027 ft 395 kts 279°
2026-04-23 18:25 51.49517 10.81318 24421 ft 398 kts 279°
2026-04-23 18:25 51.49802 10.76882 24820 ft 401 kts 278°
2026-04-23 18:26 51.50088 10.72414 25208 ft 403 kts 278°
2026-04-23 18:26 51.50370 10.67966 25598 ft 406 kts 278°
2026-04-23 18:26 51.50655 10.63447 26033 ft 407 kts 278°
2026-04-23 18:26 51.50937 10.58946 26584 ft 404 kts 278°
2026-04-23 18:27 51.51216 10.54458 27114 ft 403 kts 277°
2026-04-23 18:27 51.51492 10.49994 27596 ft 402 kts 277°
2026-04-23 18:27 51.51767 10.45519 28056 ft 403 kts 277°
2026-04-23 18:27 51.52040 10.41039 28241 ft 403 kts 277°
2026-04-23 18:28 51.52317 10.36506 28261 ft 413 kts 277°
2026-04-23 18:28 51.52886 10.27104 28259 ft 432 kts 277°
2026-04-23 18:29 51.53463 10.17387 28256 ft 440 kts 277°
2026-04-23 18:29 51.54033 10.07602 28257 ft 439 kts 276°
2026-04-23 18:30 51.54594 9.97835 28267 ft 439 kts 276°
2026-04-23 18:30 51.55145 9.88118 28269 ft 439 kts 276°
2026-04-23 18:31 51.55692 9.78343 28272 ft 439 kts 276°
2026-04-23 18:31 51.56230 9.68570 28271 ft 439 kts 276°
2026-04-23 18:32 51.56761 9.58792 28271 ft 439 kts 276°
2026-04-23 18:32 51.57286 9.48979 28269 ft 440 kts 276°
2026-04-23 18:33 51.57800 9.39190 28269 ft 440 kts 275°
2026-04-23 18:33 51.58299 9.29544 28273 ft 428 kts 275°
2026-04-23 18:34 51.58781 9.20053 28287 ft 425 kts 275°
2026-04-23 18:34 51.59255 9.10582 28289 ft 424 kts 275°
2026-04-23 18:35 51.59184 9.01112 27985 ft 425 kts 260°
2026-04-23 18:35 51.58374 8.96557 27662 ft 423 kts 247°
2026-04-23 18:35 51.56976 8.92416 27358 ft 421 kts 236°
2026-04-23 18:35 51.55322 8.88560 27056 ft 419 kts 234°
2026-04-23 18:36 51.53627 8.84759 26745 ft 417 kts 234°
2026-04-23 18:36 51.51953 8.81022 26455 ft 416 kts 234°
2026-04-23 18:36 51.50266 8.77254 26159 ft 414 kts 234°
2026-04-23 18:36 51.48589 8.73508 25865 ft 413 kts 234°
2026-04-23 18:37 51.46918 8.69778 25588 ft 411 kts 234°
2026-04-23 18:37 51.45248 8.66055 25344 ft 410 kts 234°
2026-04-23 18:37 51.43593 8.62364 25294 ft 401 kts 234°
2026-04-23 18:37 51.41990 8.58795 25286 ft 388 kts 234°
2026-04-23 18:38 51.40435 8.55339 25204 ft 381 kts 233°
2026-04-23 18:38 51.38876 8.51881 24614 ft 386 kts 234°
2026-04-23 18:38 51.37280 8.48343 23907 ft 394 kts 234°
2026-04-23 18:38 51.35653 8.44743 22983 ft 403 kts 234°
2026-04-23 18:39 51.33998 8.41086 22302 ft 407 kts 234°
2026-04-23 18:39 51.32370 8.37494 21895 ft 402 kts 234°
2026-04-23 18:39 51.30722 8.33860 21457 ft 397 kts 234°
2026-04-23 18:39 51.29119 8.30330 20904 ft 397 kts 234°
2026-04-23 18:40 51.27392 8.26892 20445 ft 395 kts 228°
2026-04-23 18:40 51.25471 8.23816 19980 ft 387 kts 224°
2026-04-23 18:40 51.23516 8.20866 19329 ft 385 kts 223°
2026-04-23 18:40 51.21559 8.17938 18682 ft 384 kts 223°
2026-04-23 18:41 51.19616 8.15046 18074 ft 380 kts 223°
2026-04-23 18:41 51.17690 8.12194 17465 ft 375 kts 223°
2026-04-23 18:41 51.15776 8.09382 16776 ft 373 kts 223°
2026-04-23 18:41 51.13875 8.06601 16188 ft 368 kts 223°
2026-04-23 18:42 51.12018 8.03889 15570 ft 365 kts 223°
2026-04-23 18:42 51.10145 8.01169 14927 ft 363 kts 223°
2026-04-23 18:42 51.08281 7.98479 14308 ft 361 kts 223°
2026-04-23 18:42 51.06420 7.95813 13664 ft 358 kts 223°
2026-04-23 18:43 51.04578 7.93173 13029 ft 354 kts 223°
2026-04-23 18:43 51.02757 7.90565 12422 ft 350 kts 223°
2026-04-23 18:43 51.00954 7.87988 11795 ft 346 kts 223°
2026-04-23 18:43 50.99172 7.85449 11190 ft 342 kts 223°
2026-04-23 18:44 50.97405 7.82940 10612 ft 338 kts 223°
2026-04-23 18:44 50.95689 7.80514 10332 ft 322 kts 223°
2026-04-23 18:44 50.94050 7.78209 10086 ft 307 kts 223°
2026-04-23 18:44 50.92473 7.76001 9701 ft 298 kts 223°
2026-04-23 18:45 50.90928 7.73844 9213 ft 294 kts 223°
2026-04-23 18:45 50.89401 7.71710 8684 ft 291 kts 223°
2026-04-23 18:45 50.87882 7.69601 8176 ft 289 kts 223°
2026-04-23 18:45 50.86377 7.67514 7671 ft 287 kts 223°
2026-04-23 18:46 50.84876 7.65442 7162 ft 286 kts 223°
2026-04-23 18:46 50.83386 7.63389 6691 ft 283 kts 223°
2026-04-23 18:46 50.81920 7.61376 6226 ft 283 kts 223°
2026-04-23 18:46 50.80442 7.59353 5934 ft 278 kts 223°
2026-04-23 18:47 50.78988 7.57367 5660 ft 274 kts 223°
2026-04-23 18:47 50.77546 7.55402 5355 ft 273 kts 223°
2026-04-23 18:47 50.76107 7.53450 5029 ft 272 kts 223°
2026-04-23 18:47 50.74671 7.51515 4733 ft 270 kts 223°
2026-04-23 18:48 50.73250 7.49592 4412 ft 268 kts 223°
2026-04-23 18:48 50.71848 7.47680 4161 ft 264 kts 225°
2026-04-23 18:48 50.70787 7.45428 3893 ft 255 kts 252°
2026-04-23 18:48 50.70537 7.42764 3758 ft 240 kts 277°
2026-04-23 18:49 50.70744 7.40215 3619 ft 231 kts 283°
2026-04-23 18:49 50.71215 7.37842 3405 ft 223 kts 302°
2026-04-23 18:49 50.72092 7.35959 3415 ft 203 kts 316°
2026-04-23 18:49 50.73093 7.34481 3307 ft 194 kts 321°
2026-04-23 18:50 50.73767 7.33568 3225 ft 192 kts 321°
2026-04-23 18:50 50.75101 7.31719 3041 ft 188 kts 320°
2026-04-23 18:50 50.76036 7.30341 2878 ft 184 kts 318°
2026-04-23 18:50 50.76946 7.28939 2644 ft 178 kts 318°
2026-04-23 18:51 50.77819 7.27621 2370 ft 174 kts 320°
2026-04-23 18:51 50.78711 7.26369 2117 ft 169 kts 321°
2026-04-23 18:51 50.79556 7.25168 1907 ft 157 kts 320°
2026-04-23 18:51 50.80320 7.24055 1738 ft 142 kts 320°
2026-04-23 18:52 50.81018 7.23051 1541 ft 132 kts 321°
2026-04-23 18:52 50.81701 7.22107 1315 ft 130 kts 320°
2026-04-23 18:52 50.82370 7.21131 1172 ft 132 kts 316°
2026-04-23 18:52 50.83052 7.20128 1029 ft 136 kts 317°
2026-04-23 18:53 50.83761 7.19115 832 ft 138 kts 316°
2026-04-23 18:53 50.84461 7.18086 653 ft 137 kts 316°
2026-04-23 18:53 50.85163 7.17084 446 ft 133 kts 318°
2026-04-23 18:53 50.85829 7.16121 314 ft 123 kts 315°
2026-04-23 18:54 50.86327 7.15399 278 ft 73 kts 317°
2026-04-23 18:54 50.86607 7.14993 268 ft 47 kts 317°
2026-04-23 18:54 50.86784 7.14722 263 ft 24 kts 306°
2026-04-23 18:54 50.86856 7.14520 262 ft 17 kts 298°
2026-04-23 18:55 50.86883 7.14405 264 ft 5 kts 279°
2026-04-23 18:55 50.86886 7.14358 265 ft 4 kts 277°
2026-04-23 18:55 50.86891 7.14306 264 ft 5 kts 278°
2026-04-23 18:55 50.86898 7.14233 261 ft 8 kts 279°
2026-04-23 18:56 50.86905 7.14170 258 ft 8 kts 279°
2026-04-23 18:56 50.86909 7.14134 258 ft 3 kts 279°
2026-04-23 18:56 50.86913 7.14095 257 ft 4 kts 279°
2026-04-23 18:56 50.86917 7.14054 257 ft 2 kts 279°
2026-04-23 18:57 50.86921 7.14011 255 ft 6 kts 279°
2026-04-23 18:57 50.86938 7.13912 250 ft 11 kts 296°
2026-04-23 18:57 50.86990 7.13827 249 ft 11 kts 318°
2026-04-23 18:57 50.87042 7.13751 248 ft 10 kts 317°
2026-04-23 18:58 50.87097 7.13672 247 ft 11 kts 317°
2026-04-23 18:58 50.87152 7.13593 245 ft 11 kts 317°
2026-04-23 18:58 50.87210 7.13508 244 ft 11 kts 317°
2026-04-23 18:58 50.87271 7.13418 242 ft 12 kts 317°
2026-04-23 18:59 50.87335 7.13325 240 ft 13 kts 317°
2026-04-23 18:59 50.87378 7.13258 239 ft 6 kts 306°
2026-04-23 18:59 50.87374 7.13206 238 ft 4 kts 239°
2026-04-23 18:59 50.87356 7.13173 238 ft 4 kts 228°
2026-04-23 19:00 50.87341 7.13146 238 ft 3 kts 227°
2026-04-23 19:00 50.87330 7.13127 238 ft 2 kts 227°
2026-04-23 19:00 50.87328 7.13124 238 ft 0 kts 227°
2026-04-23 19:01 50.87328 7.13123 238 ft 0 kts 227°
2026-04-23 19:08 50.87328 7.13124 239 ft 0 kts 227°